Regional Weather Roundup
Issued by NWS Cleveland, OH

Home | Current Version | Previous Version | Text Only | Print | Product List | Glossary On
Versions: 1 2 3 4 5 6 7 8 9 10 11 12 13 14 15 16 17 18 19 20 21 22 23 24 25 26 27 28 29 30 31 32 33 34 35 36 37 38 39 40 41 42 43 44 45 46 47 48 49 50
000
ASUS41 KCLE 010610
RWRCLE
OHIO REGIONAL WEATHER ROUNDUP
NATIONAL WEATHER SERVICE WILMINGTON, OH
200 AM EDT WED OCT 01 2014

NOTE: "FAIR" INDICATES FEW OR NO CLOUDS BELOW 12,000 FEET WITH NO
SIGNIFICANT WEATHER AND/OR OBSTRUCTIONS TO VISIBILITY.

OHZ001>008-015>018-024>027-034-035-043-044-010700-
   NORTHWEST OHIO

CITY           SKY/WX    TMP DP  RH WIND       PRES   REMARKS
DEFIANCE       CLOUDY    52  48  86 NE3       30.05R
FINDLAY        CLOUDY    55  50  83 N10       30.02R
TOLEDO EXPRESS CLEAR     48  46  93 W3        30.03R
TOLEDO METCALF CLOUDY    51  47  86 NW5       30.04R
LIMA           CLOUDY    51  48  89 NE3       30.02S
$$

OHZ009>014-019>023-028>033-038-089-010700-
   NORTHEAST OHIO

CITY           SKY/WX    TMP DP  RH WIND       PRES   REMARKS
CLE-HOPKINS    MOCLDY    54  51  90 CALM      30.02S
CLE-LAKEFRONT  MOCLDY    59  55  87 N12       29.99F
CUY CO. ARPT   NOT AVBL
LORAIN-ELYRIA  CLOUDY    57  52  83 CALM      30.02R
ASHTABULA      FOG       48  47  96 CALM      30.00S VSB 1
AKRON-CANTON   FOG       51  49  92 NW3       29.99S VSB 1/2
WOOSTER        FOG       47  45  93 N5        30.01S VSB 1/2
MANSFIELD      FOG       50  50 100 CALM      30.01S VSB 1/4
YOUNGSTOWN     FOG       54  53  97 CALM      29.99S VSB 3/4
$$

OHZ042-051>053-060>062-070>072-077>081-010700-
  SOUTHWEST OHIO

CITY           SKY/WX    TMP DP  RH WIND       PRES   REMARKS
CINC-COVINGTON CLEAR     55  48  77 NE5       29.99S
CINC-LUNKEN    CLEAR     52  49  89 CALM      30.01S
HAMILTON       PTCLDY    46  45  96 CALM      30.02R
DAYTON         CLEAR     48  46  93 NE3       30.02R
WRIGHT-PAT AFB CLEAR     46  45  93 CALM      30.01R
DAYTON GENERAL CLEAR     47  45  93 NE5       30.00R
WILMINGTON     PTCLDY    48  45  89 N5        30.00R
$$

OHZ036-037-039>041-045>050-054>059-063>069-073>076-082>088-010700-
  CENTRAL AND SOUTHEAST OHIO

CITY           SKY/WX    TMP DP  RH WIND       PRES   REMARKS
COLUMBUS       MOCLDY    50  48  93 N5        29.99S
OSU AIRPORT    PTCLDY    49  48  97 N5        30.00S
BOLTON FIELD   PTCLDY    48  48  99 NW3       30.01R
RICKENBACK AFB PTCLDY    50  48  93 N5        29.99S
NEWARK         FOG       46  44  93 CALM      29.99S VSB 3/4
MARION         FOG       45  43  93 CALM      30.02R VSB 1/4
LANCASTER      FOG       47  45  93 CALM      29.99S VSB 3/4
ZANESVILLE     MOCLDY    50  48  93 N3        29.99R FOG
NEW PHILLY     CLOUDY    54  53  97 CALM      29.99S FOG
$$


USA.gov is the U.S. government's official web portal to all federal, state and local government web resources and services.